Location: ??????
(56.0120°N, 39.1740°E)
Time: 10:36:49
(UTC+00:00)

Cosmos 2058 - Pass Details

Date: 14 April 2026
Orbit: 523 x 538 km, 82.5° (Epoch: 19 May)

Event Time Altitude Azimuth Distance (km) Brightness Sun altitude
Rises 19:30:44 0° 349° (N) 2,699 7.6 -20.3°
Reaches altitude 10° 19:32:55 10° 353° (N) 1,800 6.4 -20.5°
Maximum altitude 19:36:51 63° 74° (ENE) 601 2.8 -20.7°
Enters shadow 19:37:09 60° 101° (ESE) 615 2.8 -20.7°
